Location: Sangrey
(48.2845°N, 109.8206°W)
Time: 21:43:13
(UTC+00:00)

Envisat - Pass Details

Date: 26 January 2022
Orbit: 764 x 765 km, 98.2° (Epoch: 21 May)

Event Time Altitude Azimuth Distance (km) Brightness Sun altitude
Rises 12:36:39 0° 11° (NNE) 3,243 6.4 -22.9°
Reaches altitude 10° 12:38:58 10° 10° (N) 2,312 5.5 -22.5°
Maximum altitude 12:44:02 70° 287° (WNW) 814 2.8 -21.7°
Drops below altitude 10° 12:49:04 10° 205° (SSW) 2,297 5.3 -20.8°
Sets 12:51:22 0° 203° (SSW) 3,219 6.1 -20.4°
